Regional Weather Roundup
Issued by NWS

Home | Current Version | Previous Version | Graphics & Text | Print | Product List | Glossary On
Versions: 1 2 3 4 5 6 7 8 9 10 11 12 13 14 15 16 17 18 19 20 21 22 23 24 25 26 27 28 29 30 31 32 33 34 35 36 37 38 39 40 41 42 43 44 45 46 47 48 49 50
000
ASUS43 KMKX 220500
RWRWI

WISCONSIN REGIONAL WEATHER ROUNDUP
NATIONAL WEATHER SERVICE MILWAUKEE/SULLIVAN WI
1200 AM CDT WED OCT 22 2014

NOTE: "FAIR" INDICATES FEW OR NO CLOUDS BELOW 12,000 FEET WITH NO
SIGNIFICANT WEATHER AND/OR OBSTRUCTIONS TO VISIBILITY.

WIZ001-002-006>008-014>016-023>028-220600-
NORTHWEST WISCONSIN

CITY           SKY/WX    TMP DP  RH WIND       PRES   REMARKS
SUPERIOR ARPT  CLEAR     35  33  96 CALM      30.22F
ASHLAND        FOG       31  30  96 CALM      30.26R VSB 1/2
HAYWARD        CLEAR     42  34  73 S7        30.23S
SIREN          CLEAR     43  36  75 SE6       30.20S
CUMBERLAND     CLEAR     37  34  87 SE5       30.23R WCI  34
RICE LAKE      CLEAR     41  35  79 SE9       30.24S
CHETEK         CLEAR     40  35  83 SE5       30.24S
LADYSMITH      CLEAR     38  33  84 SE5       30.27S WCI  34
EAU CLAIRE     CLEAR     41  34  76 SE7       30.24S
MENOMONIE      CLEAR     38  34  88 SE6       30.23F WCI  33
NEW RICHMOND   CLEAR     42  35  76 SE8       30.20S
OSCEOLA        CLEAR     44  37  76 SE9       30.21F
$$

WIZ003>005-009-010-017-018-220600-
NORTH CENTRAL WISCONSIN

CITY           SKY/WX    TMP DP  RH WIND       PRES   REMARKS
MANITOWISH WTR CLEAR     31  31 100 SE5       30.25S WCI  26
ARBOR VITAE    CLEAR     39  33  79 SE6       30.26R WCI  35
WOODRUFF       CLEAR     39  33  79 SE6       30.26R WCI  35
RHINELANDER    CLEAR     33  28  81 SE6       30.28R WCI  28
EAGLE RIVER    CLEAR     34  29  80 SE6       30.27R WCI  29
LAND O LAKES   CLEAR     28  27  94 SE3       30.28S
PHILLIPS       CLEAR     30  30  97 CALM      30.25R
TOMAHAWK       CLEAR     31  30  96 CALM      30.28R
MEDFORD        CLEAR     33  30  92 CALM      30.26S
MERRILL        PTCLDY    29  28  97 CALM      30.27S
$$

WIZ029-030-035-036-043>047-220600-
CENTRAL WISCONSIN

CITY           SKY/WX    TMP DP  RH WIND       PRES   REMARKS
WAUSAU         PTCLDY    35  31  85 E7        30.28R WCI  29
MOSINEE        CLEAR     36  34  93 CALM      30.29R
MARSHFIELD     CLEAR     38  33  82 S3        30.27S
STEVENS POINT  PTCLDY    28  27  96 CALM      30.29R
WAUPACA        CLEAR     34  32  94 NW3       30.30R
WAUTOMA        NOT AVBL
WISC RAPIDS    CLEAR     32  30  92 E3        30.29S
CAMP DOUGLAS   CLEAR     28  28 100 E2        30.28R FOG
$$

WIZ011>013-019>022-031-037>040-048>050-220600-
NORTHEAST WISCONSIN

CITY           SKY/WX    TMP DP  RH WIND       PRES   REMARKS
ANTIGO         PTCLDY    35  32  87 SE7       30.29S WCI  29
SHAWANO        CLEAR     39  35  87 NE3       30.31S
OCONTO         CLEAR     32  32 100 CALM      30.31S
STURGEON BAY   CLEAR     39  34  81 NE3       30.30S
GREEN BAY      CLEAR     33  32  96 NW5       30.31R WCI  29
MANITOWOC      NOT AVBL
APPLETON       CLEAR     41  32  70 CALM      30.29S
CLINTONVILLE   CLEAR     34  32  93 CALM      30.30S
OSHKOSH        PTCLDY    39  35  86 CALM      30.29R
$$

WIZ032>034-041-042-053>061-220600-
SOUTHWEST WISCONSIN

CITY           SKY/WX    TMP DP  RH WIND       PRES   REMARKS
LA CROSSE      CLEAR     42  35  76 E5        30.26S
SPARTA         CLEAR     31  31  98 CALM      30.28S
VIROQUA        CLEAR     38  35  91 SE5       30.26S WCI  34
BOSCOBEL       CLEAR     32  30  92 CALM      30.29S FOG
PRAIRIE DU CHI CLEAR     42  35  77 SE5       30.26S
PLATTEVILLE    CLEAR     37  35  90 E8        30.28S WCI  31
$$

WIZ056-057-062-063-064-067-068-220600-
SOUTH CENTRAL WISCONSIN

CITY           SKY/WX    TMP DP  RH WIND       PRES   REMARKS
REEDSBURG      CLEAR     33  32  96 CALM      30.28S
BARABOO/DELLS  CLEAR     32  30  94 CALM      30.28R
LONE ROCK      NOT AVBL
MINERAL POINT  PTCLDY    37  34  87 E3        30.27R
MADISON        CLEAR     32  31  96 CALM      30.29S FOG
MIDDLETON        N/A     33  33 100 CALM      30.28S
WATERTOWN      PTCLDY    30  29  96 CALM      30.28S
MONROE         CLEAR     37  36  93 E5        30.27S WCI  34
JANESVILLE     CLEAR     36  34  93 CALM      30.28S
$$

WIZ051-052-058>065-066-070>072-220600-
SOUTHEAST WISCONSIN

CITY           SKY/WX    TMP DP  RH WIND       PRES   REMARKS
MILWAUKEE      PTCLDY    44  37  76 NE5       30.27S
WAUKESHA       PTCLDY    32  32 100 CALM      30.29S
MILWAUKEE/TIMM PTCLDY    34  32  93 CALM      30.29R
RACINE         CLEAR     43  37  79 NE5       30.28S
BURLINGTON     PTCLDY    28  28 100 CALM      30.27F FOG
KENOSHA        MOCLDY    39  36  89 NW6       30.27S WCI  35
FOND DU LAC    PTCLDY    31  28  89 CALM      30.29S
SHEBOYGAN      PTCLDY    33  31  92 CALM      30.29R
WEST BEND      PTCLDY    32  30  93 CALM      30.28S FOG
JUNEAU         PTCLDY    35  34  99 CALM      30.29S
$$

LSZ147-162-220600-
LAKE SUPERIOR

STATION/POSITION TIME  TEMP    WIND        PRES    WAVE
                       AIR SEA DIR/SP/G            HT/PER
                 (UTC) (F)     (DEG/KT/KT) (MB)    (FT/S)
W MID LAKE BUOY  0350   44 46  130/ 12/ 14 1025.4R   2/ 5
DEVILS ISLAND    0400   45     120/ 11/ 13 1024.8F
PORT WING        0440   39      CALM  /  2 1023.7F
SAXON HARBOR     0400   33        CALM     1024.0
$$

LMZ867-665-643>646-220600-
LAKE MICHIGAN

STATION/POSITION TIME  TEMP    WIND        PRES    WAVE
                       AIR SEA DIR/SP/G            HT/PER
                 (UTC) (F)     (DEG/KT/KT) (MB)    (FT/S)
CHAMBERS ISLAND  0400   44      50/  8/ 11 1026.4S
N MID LAKE BUOY  0350   46 51   90/ 10/ 14 1026.5S   2/ 4
NORTHPORT PIER   0400   43      40/  6/  8 1026.1S
SISTER BAY       0358           30/  3/  8   N/A
KEWAUNEE LAKESHO 0400   46      70/  9/ 13 1024.8R
SHEBOYGAN LAKESH 0400   47 49   60/ 15/ 16 1026.2S
PORT WASHINGTON  0400   48      70/ 12/ 17 1025.7F
ATWATER BUOY     0400   49      40/ 14/ 17 1025.7F
MILWAUKEE LAKESH 0400   48      40/ 14/ 16   N/A
S MID LAKE BUOY  0350   50 54   30/ 12/ 14 1024.9S   5/ 6
KENOSHA   LAKESH 0400   49      50/ 11/ 14 1024.7S
$$

TC  - TEMPERATURE IN CELSIUS
VSB - VISIBILITY IN STATUTE MILES
WCI - WIND CHILL INDEX
HX  - HEAT INDEX




USA.gov is the U.S. government's official web portal to all federal, state and local government web resources and services.